• In Kazakhstan
  • List of Countries
  • For 7 days
  • Water Temperature
  • Weather Map
  • News
  • Weather Widgets
  • user-avatar
    Login

    Hourly Weather Pleven

    Today, 15 October, Tuesday

    Time Temperature Precipitation Wind Pressure Humidity
    00:00 +19°C° 0 mm 1 mps 748 mmHg 47%
    01:00 +18°C° 0 mm 1 mps 748 mmHg 47%
    02:00 +18°C° 0 mm 1 mps 749 mmHg 47%
    03:00 +18°C° 0 mm 1 mps 748 mmHg 47%
    04:00 +16°C° 0 mm 1 mps 748 mmHg 47%
    05:00 +16°C° 0 mm 1 mps 748 mmHg 47%
    06:00 +18°C° 0 mm 1 mps 748 mmHg 46%
    07:00 +19°C° 0 mm 1 mps 748 mmHg 45%
    08:00 +20°C° 0 mm 1 mps 748 mmHg 43%
    09:00 +22°C° 0 mm 1 mps 748 mmHg 38%
    10:00 +24°C° 0 mm 1 mps 748 mmHg 33%
    11:00 +26°C° 0 mm 2 mps 748 mmHg 28%
    12:00 +27°C° 0 mm 2 mps 747 mmHg 26%
    13:00 +28°C° 0 mm 2 mps 747 mmHg 25%
    14:00 +29°C° 0 mm 3 mps 747 mmHg 23%
    15:00 +28°C° 0 mm 3 mps 746 mmHg 25%
    16:00 +27°C° 0 mm 2 mps 746 mmHg 28%
    17:00 +26°C° 0 mm 2 mps 745 mmHg 30%
    18:00 +24°C° 0 mm 2 mps 746 mmHg 34%
    19:00 +21°C° 0 mm 2 mps 746 mmHg 37%
    20:00 +19°C° 0 mm 2 mps 746 mmHg 40%
    21:00 +19°C° 0 mm 2 mps 746 mmHg 41%
    22:00 +19°C° 0 mm 1 mps 746 mmHg 42%
    23:00 +18°C° 0 mm 1 mps 746 mmHg 43%

    Tomorrow, 16 October, Wednesday

    Time Temperature Precipitation Wind Pressure Humidity
    00:00 +18°C° 0 mm 1 mps 746 mmHg 44%
    01:00 +18°C° 0 mm 1 mps 746 mmHg 45%
    02:00 +16°C° 0 mm 1 mps 747 mmHg 45%
    03:00 +16°C° 0 mm 1 mps 746 mmHg 46%
    04:00 +15°C° 0 mm 1 mps 746 mmHg 47%
    05:00 +14°C° 0 mm 0 mps 746 mmHg 48%
    06:00 +15°C° 0 mm 0 mps 746 mmHg 47%
    07:00 +15°C° 0 mm 0 mps 746 mmHg 47%
    08:00 +16°C° 0 mm 0 mps 746 mmHg 47%
    09:00 +20°C° 0 mm 1 mps 747 mmHg 42%
    10:00 +22°C° 0 mm 1 mps 747 mmHg 38%
    11:00 +24°C° 0 mm 1 mps 747 mmHg 34%
    12:00 +25°C° 0 mm 1 mps 746 mmHg 32%
    13:00 +26°C° 0 mm 2 mps 746 mmHg 30%
    14:00 +27°C° 0 mm 2 mps 746 mmHg 28%
    15:00 +26°C° 0 mm 1 mps 746 mmHg 30%
    16:00 +25°C° 0 mm 1 mps 745 mmHg 32%
    17:00 +24°C° 0 mm 1 mps 745 mmHg 35%
    18:00 +23°C° 0 mm 1 mps 745 mmHg 39%
    19:00 +21°C° 0 mm 1 mps 746 mmHg 42%
    20:00 +20°C° 0 mm 1 mps 746 mmHg 46%
    21:00 +19°C° 0 mm 1 mps 746 mmHg 48%
    22:00 +18°C° 0 mm 1 mps 746 mmHg 49%
    23:00 +18°C° 0 mm 1 mps 747 mmHg 51%

    Day after tomorrow, 17 October, Thursday

    Time Temperature Precipitation Wind Pressure Humidity
    00:00 +18°C° 0 mm 1 mps 747 mmHg 52%
    01:00 +16°C° 0 mm 1 mps 747 mmHg 53%
    02:00 +15°C° 0 mm 0 mps 747 mmHg 55%
    03:00 +14°C° 0 mm 0 mps 747 mmHg 56%
    04:00 +14°C° 0 mm 0 mps 747 mmHg 57%
    05:00 +14°C° 0 mm 0 mps 747 mmHg 58%
    06:00 +15°C° 0 mm 0 mps 747 mmHg 56%
    07:00 +15°C° 0 mm 0 mps 747 mmHg 54%
    08:00 +16°C° 0 mm 0 mps 747 mmHg 52%
    09:00 +18°C° 0 mm 0 mps 747 mmHg 47%
    10:00 +22°C° 0 mm 1 mps 747 mmHg 41%
    11:00 +25°C° 0 mm 1 mps 747 mmHg 36%
    12:00 +25°C° 0 mm 1 mps 747 mmHg 33%
    13:00 +26°C° 0 mm 1 mps 747 mmHg 31%
    14:00 +27°C° 0 mm 2 mps 746 mmHg 29%
    15:00 +26°C° 0 mm 2 mps 746 mmHg 31%
    16:00 +25°C° 0 mm 2 mps 746 mmHg 33%
    17:00 +25°C° 0 mm 1 mps 746 mmHg 35%
    18:00 +23°C° 0 mm 1 mps 746 mmHg 39%
    19:00 +21°C° 0 mm 1 mps 747 mmHg 43%
    20:00 +20°C° 0 mm 1 mps 747 mmHg 47%
    21:00 +19°C° 0 mm 1 mps 747 mmHg 48%
    22:00 +19°C° 0 mm 1 mps 747 mmHg 50%
    23:00 +18°C° 0 mm 1 mps 747 mmHg 51%

    18 October, Friday

    Time Temperature Precipitation Wind Pressure Humidity
    00:00 +18°C° 0 mm 1 mps 747 mmHg 52%
    01:00 +18°C° 0 mm 1 mps 747 mmHg 53%
    02:00 +16°C° 0 mm 1 mps 747 mmHg 54%
    03:00 +16°C° 0 mm 1 mps 747 mmHg 55%
    04:00 +15°C° 0 mm 0 mps 747 mmHg 56%
    05:00 +14°C° 0 mm 0 mps 748 mmHg 57%
    06:00 +15°C° 0 mm 0 mps 748 mmHg 55%
    07:00 +16°C° 0 mm 0 mps 748 mmHg 54%
    08:00 +17°C° 0 mm 0 mps 748 mmHg 52%
    09:00 +19°C° 0 mm 0 mps 748 mmHg 47%
    10:00 +23°C° 0 mm 1 mps 748 mmHg 41%
    11:00 +25°C° 0 mm 1 mps 748 mmHg 36%
    12:00 +25°C° 0 mm 2 mps 747 mmHg 34%
    13:00 +26°C° 0 mm 2 mps 747 mmHg 32%
    14:00 +27°C° 0 mm 2 mps 747 mmHg 29%
    15:00 +26°C° 0 mm 2 mps 746 mmHg 31%
    16:00 +26°C° 0 mm 2 mps 746 mmHg 33%
    17:00 +25°C° 0 mm 2 mps 746 mmHg 36%
    18:00 +23°C° 0 mm 2 mps 746 mmHg 39%
    19:00 +21°C° 0 mm 2 mps 747 mmHg 43%
    20:00 +19°C° 0 mm 2 mps 747 mmHg 47%
    21:00 +20°C° 0 mm 1 mps 747 mmHg 48%
    22:00 +19°C° 0 mm 1 mps 747 mmHg 50%
    23:00 +19°C° 0 mm 1 mps 747 mmHg 52%

    19 October, Saturday

    Time Temperature Precipitation Wind Pressure Humidity
    00:00 +18°C° 0 mm 1 mps 747 mmHg 53%
    01:00 +18°C° 0 mm 1 mps 747 mmHg 55%
    02:00 +18°C° 0 mm 1 mps 747 mmHg 56%
    03:00 +16°C° 0 mm 1 mps 747 mmHg 57%
    04:00 +16°C° 0 mm 1 mps 747 mmHg 58%
    05:00 +15°C° 0 mm 0 mps 747 mmHg 59%
    06:00 +15°C° 0 mm 0 mps 747 mmHg 57%
    07:00 +16°C° 0 mm 0 mps 747 mmHg 56%
    08:00 +17°C° 0 mm 0 mps 747 mmHg 54%
    09:00 +19°C° 0 mm 0 mps 747 mmHg 48%
    10:00 +23°C° 0 mm 1 mps 748 mmHg 43%
    11:00 +25°C° 0 mm 1 mps 748 mmHg 37%
    12:00 +26°C° 0 mm 1 mps 747 mmHg 35%
    13:00 +27°C° 0 mm 2 mps 747 mmHg 33%
    14:00 +28°C° 0 mm 2 mps 747 mmHg 31%
    15:00 +27°C° 0 mm 2 mps 746 mmHg 32%
    16:00 +26°C° 0 mm 2 mps 746 mmHg 34%
    17:00 +25°C° 0 mm 2 mps 746 mmHg 35%
    18:00 +24°C° 0 mm 2 mps 746 mmHg 38%
    19:00 +21°C° 0 mm 2 mps 747 mmHg 41%
    20:00 +19°C° 0 mm 2 mps 747 mmHg 44%
    21:00 +19°C° 0 mm 2 mps 747 mmHg 45%
    22:00 +19°C° 0 mm 1 mps 747 mmHg 47%
    23:00 +19°C° 0 mm 1 mps 747 mmHg 48%

    20 October, Sunday

    Time Temperature Precipitation Wind Pressure Humidity
    00:00 +19°C° 0 mm 1 mps 747 mmHg 48%
    01:00 +18°C° 0 mm 1 mps 747 mmHg 49%
    02:00 +18°C° 0 mm 1 mps 747 mmHg 49%
    03:00 +18°C° 0 mm 1 mps 747 mmHg 49%
    04:00 +18°C° 0 mm 1 mps 747 mmHg 49%
    05:00 +16°C° 0 mm 1 mps 747 mmHg 49%
    06:00 +18°C° 0 mm 1 mps 747 mmHg 48%
    07:00 +16°C° 0 mm 0 mps 748 mmHg 47%
    08:00 +17°C° 0 mm 0 mps 748 mmHg 47%
    09:00 +21°C° 0 mm 1 mps 748 mmHg 42%
    10:00 +23°C° 0 mm 1 mps 748 mmHg 38%
    11:00 +25°C° 0 mm 1 mps 748 mmHg 34%
    12:00 +26°C° 0 mm 1 mps 748 mmHg 32%
    13:00 +27°C° 0 mm 1 mps 748 mmHg 30%
    14:00 +27°C° 0 mm 2 mps 747 mmHg 29%
    15:00 +27°C° 0 mm 2 mps 747 mmHg 31%
    16:00 +26°C° 0 mm 2 mps 747 mmHg 33%
    17:00 +25°C° 0 mm 2 mps 747 mmHg 36%
    18:00 +23°C° 0 mm 1 mps 747 mmHg 39%
    19:00 +22°C° 0 mm 1 mps 748 mmHg 42%
    20:00 +20°C° 0 mm 1 mps 748 mmHg 45%
    21:00 +20°C° 0 mm 1 mps 748 mmHg 46%
    22:00 +19°C° 0 mm 1 mps 748 mmHg 47%
    23:00 +19°C° 0 mm 1 mps 749 mmHg 48%
    Show more